Regional Weather Roundup
Issued by NWS

Home | Current Version | Previous Version | Graphics & Text | Print | Product List | Glossary On
Versions: 1 2 3 4 5 6 7 8 9 10 11 12 13 14 15 16 17 18 19 20 21 22 23 24 25 26 27 28 29 30 31 32 33 34 35 36 37 38 39 40 41 42 43 44 45 46 47 48 49 50
235
ASUS43 KLSX 060007
RWRMO

WEATHER SUMMARY FOR MISSOURI
NATIONAL WEATHER SERVICE SPRINGFIELD MO
600 PM CST FRI FEB 05 2016

NOTE: "FAIR" INDICATES FEW OR NO CLOUDS BELOW 12,000 FEET WITH NO
       SIGNIFICANT WEATHER AND/OR OBSTRUCTIONS TO VISIBILITY.
       CURRENT SKY AND/OR WEATHER CONDITIONS ARE NOT AVAILABLE FOR
       CHILLICOTHE AND FARMINGTON.

MOZ001>031-035>038-043-044-053-054-060100-
...NORTHERN AND WESTERN MISSOURI...

CITY           SKY/WX    TMP DP  RH WIND       PRES   REMARKS
KANSAS CTY INT CLOUDY    39  22  50 SE5       30.27F
6HR MIN TEMP:  32; 6HR MAX TEMP:  41;

KANSAS C DTWN  CLOUDY    43  21  41 SE5       30.28F
6HR MIN TEMP:  35; 6HR MAX TEMP:  44;

LEE`S SUMMIT   CLOUDY    41  22  46 SE6       30.29S
6HR MIN TEMP:  33; 6HR MAX TEMP:  42;

ST JOSEPH      CLOUDY    38  23  55 SE3       30.30R
6HR MIN TEMP:  31; 6HR MAX TEMP:  39;

CHILLICOTHE      N/A     36  22  56 VRB3      30.33S
6HR MIN TEMP:  31; 6HR MAX TEMP:  38;

KIRKSVILLE     CLOUDY    30  21  69 SE7       30.33F WCI  23
6HR MIN TEMP:  30; 6HR MAX TEMP:  36;


$$
MOZ066>068-077>081-088>096-101>105-060100-
...SOUTHWEST MISSOURI...

CITY           SKY/WX    TMP DP  RH WIND       PRES   REMARKS
SPRINGFIELD    PTCLDY    44  17  33 CALM      30.29F
6HR MIN TEMP:  43; 6HR MAX TEMP:  52;

JOPLIN         PTCLDY    47  18  31 CALM      30.30R
6HR MIN TEMP:  47; 6HR MAX TEMP:  52;


$$
MOZ032>034-039>042-045>050-055>058-069>072-060100-
...CENTRAL MISSOURI...

CITY           SKY/WX    TMP DP  RH WIND       PRES   REMARKS
COLUMBIA       CLEAR     39  14  36 E3        30.33F
6HR MIN TEMP:  33; 6HR MAX TEMP:  42;

JEFFERSON CITY CLEAR     40  18  41 E5        30.34F
6HR MIN TEMP:  35; 6HR MAX TEMP:  44;

ROLLA          CLEAR     36  21  54 N5        30.31S
SEDALIA        MOCLDY    41  20  43 NE3       30.33R
6HR MIN TEMP:  35; 6HR MAX TEMP:  46;

WHITEMAN AFB   MOCLDY    40  22  48 CALM      30.31S
WARRENSBURG    CLOUDY    41  23  48 SE6       30.30F
OSAGE BEACH    CLOUDY    41  19  42 NE5       30.32S

$$
MOZ051-052-059>065-060100-
...EAST CENTRAL MISSOURI...

CITY           SKY/WX    TMP DP  RH WIND       PRES   REMARKS
ST LOUIS INTL  PTCLDY    38  16  40 NE3       30.37S
6HR MIN TEMP:  37; 6HR MAX TEMP:  42;

SPIRIT OF STL  CLEAR     33  22  63 CALM      30.36S
6HR MIN TEMP:  33; 6HR MAX TEMP:  43;

ST CHARLES     CLEAR     34  19  54 CALM      30.38R
6HR MIN TEMP:  34; 6HR MAX TEMP:  40;


$$
MOZ072>076-082>087-097>100-106>115-060100-
...SOUTH CENTRAL AND SOUTHEAST MISSOURI...

CITY           SKY/WX    TMP DP  RH WIND       PRES   REMARKS
CAPE GIRARDEAU CLEAR     40  24  53 S8        30.34F
6HR MIN TEMP:  40; 6HR MAX TEMP:  50;

FARMINGTON     CLEAR     38  20  48 E7        30.34R
6HR MIN TEMP:  38; 6HR MAX TEMP:  48;

POPLAR BLUFF   CLEAR     45  24  43 S6        30.34S
6HR MIN TEMP:  44; 6HR MAX TEMP:  51;

WEST PLAINS    CLOUDY    42  16  34 CALM      30.32S
6HR MIN TEMP:  42; 6HR MAX TEMP:  52;


$$



USA.gov is the U.S. government's official web portal to all federal, state and local government web resources and services.